Flag for U.S.A. Weather past 2 weeks in Fayetteville, North Carolina, U.S.A.

Now
73 °F

Scattered clouds.


Feels Like: 75 °F
Forecast: 65 / 85 °F
Wind: 9 mph from North

Location: Fayetteville Regional Airport

Current Time: Sep 20, 2014 at 8:21:56 PM

Latest Report: Sep 20, 2014 at 7:53 PM


Visibility: 10 mi

Pressure: 29.97 "Hg

Humidity: 69%

Dew point: 62 °F

Location of FayettevilleLocation

Historic Weather in Fayetteville — Graph

°F

Fayetteville temperature yesterday

Maximum temperature yesterday: 83 °F (at 2:53 PM)
Minimum temperature yesterday: 64 °F (at 4:53 AM)
Average temperature yesterday: 71 °F

Past Weeks' High & Low Weather Summary

 TemperatureHumidityPressure
High89 °F (Sep 6, 3:53 PM)100% (Sep 13, 6:01 AM)30.22 "Hg (Sep 13, 6:01 AM)
Low61 °F (Sep 20, 4:53 AM)44% (Sep 19, 2:53 PM)29.86 "Hg (Sep 17, 4:53 PM)
Average74 °F83%30.04 "Hg
* Reported Sep 5 6:53 PM — Sep 20 6:53 PM, Fayetteville, Weather by CustomWeather, © 2014

Note: Actual official high and low records may vary slightly from our data, if they occured in-between our weather recording intervals... More about our weather records

Advertising

Fayetteville weather history for previous 24 hours

 ConditionsComfort  
Time TempWeatherWind HumidityBarometerVisibility
6:53 PM
Sep 20
74 °FSunny.8 mph67%29.98 "Hg10 mi
5:53 PM77 °FSunny.8 mph58%29.99 "Hg10 mi
4:53 PM78 °FSunny.10 mph54%29.99 "Hg10 mi
3:53 PM79 °FSunny.12 mph52%30.01 "Hg10 mi
2:53 PM81 °FSunny.14 mph49%30.03 "Hg10 mi
1:53 PM80 °FSunny.12 mph49%30.08 "Hg10 mi
8:53 AM64 °FSunny.12 mph87%30.14 "Hg8 mi
7:53 AM62 °FClear.10 mph90%30.14 "Hg7 mi
6:53 AM61 °FClear.8 mph93%30.15 "Hg8 mi
5:53 AM61 °FClear.7 mph90%30.14 "Hg8 mi
4:53 AM61 °FClear.7 mph90%30.13 "Hg9 mi
3:53 AM62 °FClear.9 mph90%30.14 "Hg10 mi
2:53 AM62 °FClear.7 mph90%30.16 "Hg10 mi
1:53 AM62 °FClear.6 mph90%30.18 "Hg10 mi
12:53 AM65 °FClear.7 mph81%30.18 "Hg10 mi
11:53 PM
Sep 19
66 °FClear.8 mph78%30.19 "Hg10 mi
10:53 PM66 °FClear.6 mph81%30.18 "Hg10 mi
9:53 PM68 °FClear.5 mph76%30.16 "Hg10 mi
8:53 PM69 °FClear.5 mph79%30.16 "Hg10 mi
Weather by CustomWeather, © 2014

See weather overviewHow to use our weather pages